Meteo pe oră la Dzierzyslaw

Astăzi, 6 Martie, Sâmbătă

Timp Temperatura Precipitaţii Vânt Presiune Umiditate
00:00 -3°C° 0 mm 2 m/s 748 mmHg 74%
01:00 -3°C° 0 mm 2 m/s 748 mmHg 74%
02:00 -3°C° 0 mm 2 m/s 748 mmHg 74%
03:00 -3°C° 0 mm 2 m/s 748 mmHg 74%
04:00 -3°C° 0 mm 2 m/s 748 mmHg 73%
05:00 -3°C° 0 mm 2 m/s 748 mmHg 73%
06:00 -3°C° 0 mm 2 m/s 749 mmHg 72%
07:00 -3°C° 0 mm 2 m/s 749 mmHg 72%
08:00 -2°C° 0 mm 2 m/s 749 mmHg 64%
09:00 +1°C° 0 mm 2 m/s 749 mmHg 57%
10:00 +2°C° 0 mm 2 m/s 750 mmHg 50%
11:00 +3°C° 0 mm 2 m/s 749 mmHg 48%
12:00 +2°C° 0 mm 3 m/s 749 mmHg 46%
13:00 +3°C° 0 mm 3 m/s 749 mmHg 44%
14:00 +4°C° 0 mm 2 m/s 749 mmHg 45%
15:00 +4°C° 0 mm 2 m/s 748 mmHg 47%
16:00 +4°C° 0 mm 2 m/s 748 mmHg 49%
17:00 +3°C° 0 mm 2 m/s 748 mmHg 54%
18:00 +1°C° 0 mm 2 m/s 748 mmHg 59%
19:00 -1°C° 0 mm 2 m/s 748 mmHg 64%
20:00 -1°C° 0 mm 2 m/s 748 mmHg 65%
21:00 -1°C° 0 mm 2 m/s 748 mmHg 65%
22:00 -2°C° 0 mm 2 m/s 748 mmHg 66%
23:00 -2°C° 0 mm 2 m/s 747 mmHg 66%

Mâine, 7 Martie, Duminică

Timp Temperatura Precipitaţii Vânt Presiune Umiditate
00:00 -2°C° 0 mm 2 m/s 747 mmHg 66%
01:00 -2°C° 0 mm 3 m/s 747 mmHg 65%
02:00 -2°C° 0 mm 3 m/s 746 mmHg 66%
03:00 -2°C° 0 mm 3 m/s 746 mmHg 66%
04:00 -2°C° 0 mm 3 m/s 745 mmHg 66%
05:00 -2°C° 0 mm 3 m/s 745 mmHg 66%
06:00 -2°C° 0 mm 3 m/s 745 mmHg 66%
07:00 -2°C° 0 mm 3 m/s 745 mmHg 66%
08:00 -1°C° 0 mm 4 m/s 745 mmHg 63%
09:00 0°C° 0 mm 4 m/s 744 mmHg 59%
10:00 +3°C° 0 mm 4 m/s 744 mmHg 56%
11:00 +3°C° 0 mm 4 m/s 743 mmHg 55%
12:00 +4°C° 0 mm 4 m/s 743 mmHg 53%
13:00 +5°C° 0 mm 4 m/s 743 mmHg 52%
14:00 +4°C° 0 mm 4 m/s 742 mmHg 54%
15:00 +4°C° 0 mm 4 m/s 741 mmHg 57%
16:00 +4°C° 0 mm 4 m/s 741 mmHg 59%
17:00 +3°C° 0 mm 3 m/s 741 mmHg 65%
18:00 +1°C° 0 mm 3 m/s 741 mmHg 71%
19:00 +1°C° 0 mm 2 m/s 741 mmHg 78%
20:00 -1°C° 0 mm 2 m/s 741 mmHg 79%
21:00 +1°C° 0 mm 1 m/s 740 mmHg 81%
22:00 0°C° 0 mm 1 m/s 740 mmHg 83%
23:00 0°C° 0 mm 1 m/s 740 mmHg 83%

Poimâine, 8 Martie, Luni

Timp Temperatura Precipitaţii Vânt Presiune Umiditate
00:00 0°C° 0 mm 1 m/s 740 mmHg 83%
01:00 0°C° 0 mm 1 m/s 740 mmHg 83%
02:00 0°C° 0 mm 1 m/s 740 mmHg 84%
03:00 0°C° 0 mm 1 m/s 740 mmHg 84%
04:00 0°C° 0 mm 1 m/s 740 mmHg 84%
05:00 0°C° 0.1 mm 1 m/s 740 mmHg 86%
06:00 0°C° 0.1 mm 1 m/s 740 mmHg 88%
07:00 0°C° 0.1 mm 1 m/s 740 mmHg 89%
08:00 -1°C° 0.1 mm 2 m/s 740 mmHg 88%
09:00 +1°C° 0.1 mm 2 m/s 740 mmHg 87%
10:00 +1°C° 0.1 mm 2 m/s 741 mmHg 86%
11:00 +2°C° 0.2 mm 2 m/s 741 mmHg 80%
12:00 +2°C° 0.2 mm 3 m/s 741 mmHg 74%
13:00 +2°C° 0.2 mm 3 m/s 741 mmHg 68%
14:00 +2°C° 0.1 mm 3 m/s 741 mmHg 64%
15:00 +2°C° 0.1 mm 3 m/s 741 mmHg 60%
16:00 +1°C° 0.1 mm 4 m/s 741 mmHg 56%
17:00 +1°C° 0 mm 3 m/s 741 mmHg 61%
18:00 -1°C° 0 mm 3 m/s 742 mmHg 66%
19:00 -2°C° 0 mm 2 m/s 742 mmHg 70%
20:00 -2°C° 0 mm 2 m/s 742 mmHg 71%
21:00 0°C° 0 mm 1 m/s 742 mmHg 72%
22:00 -1°C° 0 mm 1 m/s 742 mmHg 73%
23:00 -1°C° 0 mm 1 m/s 742 mmHg 73%

9 Martie, Marţi

Timp Temperatura Precipitaţii Vânt Presiune Umiditate
00:00 -1°C° 0 mm 1 m/s 742 mmHg 72%
01:00 -1°C° 0 mm 1 m/s 742 mmHg 72%
02:00 -2°C° 0 mm 0 m/s 742 mmHg 72%
03:00 -2°C° 0 mm 0 m/s 742 mmHg 72%
04:00 -2°C° 0 mm 0 m/s 742 mmHg 71%
05:00 -2°C° 0 mm 0 m/s 742 mmHg 71%
06:00 -2°C° 0 mm 0 m/s 742 mmHg 70%
07:00 -2°C° 0 mm 0 m/s 742 mmHg 70%
08:00 -1°C° 0 mm 0 m/s 742 mmHg 64%
09:00 +1°C° 0 mm 1 m/s 742 mmHg 58%
10:00 +2°C° 0 mm 1 m/s 742 mmHg 53%
11:00 +3°C° 0 mm 1 m/s 742 mmHg 50%
12:00 +3°C° 0 mm 1 m/s 741 mmHg 47%
13:00 +3°C° 0 mm 2 m/s 741 mmHg 44%
14:00 +3°C° 0 mm 2 m/s 741 mmHg 46%
15:00 +3°C° 0 mm 2 m/s 741 mmHg 48%
16:00 +3°C° 0 mm 2 m/s 740 mmHg 51%
17:00 +2°C° 0 mm 2 m/s 740 mmHg 56%
18:00 +1°C° 0 mm 2 m/s 741 mmHg 61%
19:00 -1°C° 0 mm 2 m/s 741 mmHg 66%
20:00 -1°C° 0 mm 2 m/s 741 mmHg 68%
21:00 -1°C° 0 mm 2 m/s 741 mmHg 69%
22:00 +1°C° 0 mm 2 m/s 742 mmHg 71%
23:00 -1°C° 0 mm 2 m/s 741 mmHg 72%

10 Martie, Miercuri

Timp Temperatura Precipitaţii Vânt Presiune Umiditate
00:00 -1°C° 0 mm 2 m/s 741 mmHg 74%
01:00 -1°C° 0 mm 2 m/s 741 mmHg 75%
02:00 -1°C° 0 mm 2 m/s 741 mmHg 77%
03:00 -1°C° 0 mm 2 m/s 741 mmHg 78%
04:00 -1°C° 0 mm 2 m/s 741 mmHg 80%
05:00 -1°C° 0 mm 2 m/s 741 mmHg 82%
06:00 -1°C° 0 mm 2 m/s 741 mmHg 84%
07:00 -1°C° 0 mm 2 m/s 741 mmHg 86%
08:00 +1°C° 0 mm 2 m/s 742 mmHg 83%
09:00 +3°C° 0 mm 2 m/s 742 mmHg 79%
10:00 +4°C° 0 mm 2 m/s 742 mmHg 75%
11:00 +4°C° 0 mm 2 m/s 742 mmHg 74%
12:00 +5°C° 0 mm 2 m/s 742 mmHg 73%
13:00 +5°C° 0 mm 2 m/s 742 mmHg 72%
14:00 +7°C° 0 mm 1 m/s 742 mmHg 71%
15:00 +7°C° 0 mm 1 m/s 742 mmHg 70%
16:00 +7°C° 0 mm 1 m/s 741 mmHg 69%
17:00 +6°C° 0 mm 1 m/s 741 mmHg 73%
18:00 +4°C° 0 mm 2 m/s 741 mmHg 78%
19:00 +3°C° 0 mm 2 m/s 741 mmHg 83%
20:00 +2°C° 0 mm 2 m/s 741 mmHg 84%
21:00 +1°C° 0 mm 3 m/s 741 mmHg 85%
22:00 +1°C° 0 mm 3 m/s 741 mmHg 87%
23:00 +1°C° 0 mm 3 m/s 741 mmHg 84%

11 Martie, Joi

Timp Temperatura Precipitaţii Vânt Presiune Umiditate
00:00 0°C° 0 mm 4 m/s 740 mmHg 82%
01:00 +1°C° 0 mm 4 m/s 740 mmHg 80%
02:00 +1°C° 0 mm 5 m/s 740 mmHg 79%
03:00 +1°C° 0 mm 5 m/s 739 mmHg 78%
04:00 +1°C° 0 mm 5 m/s 739 mmHg 77%
05:00 +1°C° 0 mm 6 m/s 738 mmHg 77%
06:00 +2°C° 0 mm 7 m/s 738 mmHg 76%
07:00 +2°C° 0 mm 7 m/s 738 mmHg 75%
08:00 +1°C° 0.2 mm 8 m/s 737 mmHg 78%
09:00 +2°C° 0.2 mm 8 m/s 737 mmHg 80%
10:00 +2°C° 0.2 mm 9 m/s 737 mmHg 82%
11:00 +3°C° 0.1 mm 9 m/s 737 mmHg 79%
12:00 +3°C° 0.1 mm 9 m/s 737 mmHg 75%
13:00 +5°C° 0.1 mm 9 m/s 736 mmHg 71%
14:00 +6°C° 0 mm 8 m/s 736 mmHg 70%
15:00 +6°C° 0 mm 8 m/s 736 mmHg 68%
16:00 +6°C° 0 mm 7 m/s 736 mmHg 66%
17:00 +7°C° 0 mm 6 m/s 736 mmHg 69%
18:00 +7°C° 0 mm 6 m/s 736 mmHg 72%
19:00 +7°C° 0 mm 5 m/s 736 mmHg 75%
20:00 +6°C° 0.1 mm 5 m/s 737 mmHg 78%
21:00 +6°C° 0.1 mm 5 m/s 737 mmHg 81%
22:00 +6°C° 0.1 mm 5 m/s 737 mmHg 85%
23:00 +5°C° 0.1 mm 5 m/s 737 mmHg 83%
Arată mai mult

Formular de consimțământ

Meteoprog și furnizorii noștri de servicii pot stoca și accesa date personale, precum cookies, identificatori de dispozitiv sau alte tehnologii similare pe dispozitivul dumneavoastră și procesa astfel de date pentru a personaliza conținutul și reclamele, dar și pentru a oferi caracteristici de social media și pentru a analiza traficul.

  • Stocarea și/sau accesarea informațiilor pe dispozitivul dumneavoastră

    Cookies, identificatori de dispozitiv sau alte informații pot fi stocate sau accesate pe dispozitiv în scopurile indicate mai sus.

  • Reclame și conținut personalizat, evaluarea reclamelor și a conținutului, informații despre audiențe și dezvoltarea produselor

    Reclamele și conținutul pot fi personalizate pe baza unui profil. Pot fi adăugate date suplimentare pentru a personaliza mai bine reclamele și conținutul. Performanța reclamelor și conținutului poate fi măsurată. Pot fi obținute informații despre utilizatorii care au văzut reclamele și conținutul. Aceste date pot fi utilizate pentru a dezvolta sau îmbunătăți experiența utilizatorilor, sistemele și software-ul.

Dând clic pe ‘Sunt de acord’, permiteți utilizarea cookie-urilor menționate, a identificatorilor de dispozitiv, balizelor web sau altor tehnologii similare. Setările pot fi modificate din browser-ul dispozitivului dumneavoastră.

În anumite scopuri, interesele legitime pot prima asupra consimțământului. Puteți citi mai multe informații în acest sens în Politica privind Confidențialitatea Datelor și Cookie.